Regional Weather Roundup
Issued by NWS

Home | Current Version | Previous Version | Text Only | Print | Product List | Glossary On
Versions: 1 2 3 4 5 6 7 8 9 10 11 12 13 14 15 16 17 18 19 20 21 22 23 24 25 26 27
000
ASUS42 KFFC 210503
RWRGA
WEATHER ROUNDUP FOR GEORGIA
NATIONAL WEATHER SERVICE PEACHTREE CITY GA
100 AM EDT MON APR 21 2014

NOTE: "FAIR" INDICATES FEW OR NO CLOUDS BELOW 12,000 FEET WITH NO
SIGNIFICANT WEATHER AND/OR OBSTRUCTIONS TO VISIBILITY.

* = USE WITH CAUTION. THE STATIONS MARKED WITH AN ASTERISK MAY NOT
REPORT WEATHER SUCH AS PRECIPITATION, FOG, OR THUNDER AND ARE NOT
QUALITY CONTROLLED BY NWS.

THE REMARK "TC" DENOTES TEMPERATURE READING IN DEGREES CELSIUS.

GAZ001>058-210600-
NORTH GEORGIA

CITY           SKY/WX    TMP DP  RH WIND       PRES   REMARKS
ATLANTA        PTCLDY    59  41  51 E6        30.18F
ATHENS         CLEAR     48  43  82 CALM      30.18S
CHAMBLEE       CLEAR     51  41  68 CALM      30.19S
PEACHTREE CITY CLEAR     49  46  90 CALM      30.19S
ROME           CLEAR     53  49  86 CALM      30.16S
WEST ATLANTA   CLEAR     51  48  89 CALM      30.18F
GAINESVILLE    CLEAR     54  36  50 CALM      30.21S
CARTERSVILLE   CLEAR     50  46  86 CALM      30.18S


CITY           SKY/WX    TMP DP  RH WIND       PRES   REMARKS
DALTON*        CLEAR     52  48  87 CALM      30.17S
MARIETTA       CLEAR     55  45  69 CALM      30.19S
$$

GAZ059>098-102>109-210600-
CENTRAL GEORGIA

CITY           SKY/WX    TMP DP  RH WIND       PRES   REMARKS
AUGUSTA-BUSH   CLEAR     50  45  83 NW5       30.14S
AUGUSTA-DANIEL CLEAR     59  43  55 NW7       30.15S
COLUMBUS       CLEAR     58  49  72 CALM      30.16R
MACON          CLEAR     50  47  89 CALM      30.17S
ROBINS AFB     CLEAR     52  50  95 CALM      30.16S


CITY           SKY/WX    TMP DP  RH WIND       PRES   REMARKS
LAGRANGE*      CLEAR     51  50  97 CALM      30.17S
SYLVANIA*      CLEAR     61  47  60 NE6       30.12S
MILLEDGEVILLE* CLEAR     52  50  93 CALM      30.17S
$$

GAZ099>101-110>166-210600-
SOUTH GEORGIA

CITY           SKY/WX    TMP DP  RH WIND       PRES   REMARKS
SAVANNAH       CLEAR     60  48  64 NE12G18   30.09F
VALDOSTA       PTCLDY    55  50  83 CALM      30.14R HAZE
ALMA           CLEAR     57  51  80 CALM      30.13R
ST SIMONS      CLEAR     58  54  86 CALM      30.09F
FT STEWART     CLEAR     57  53  87 N5        30.09F
ALBANY         CLEAR     52  51  97 CALM      30.15F
HUNTER AFB     CLEAR     60  50  67 NE5       30.07F
MOODY AFB      MOCLDY    53  53 100 CALM      30.14R
BRUNSWICK        N/A     55  54  94 CALM      30.11F


CITY           SKY/WX    TMP DP  RH WIND       PRES   REMARKS
BAINBRIDGE*    CLEAR     55  54  94 CALM      30.14S
MOULTRIE*      CLEAR     54  54 100 CALM      30.14S FOG
VIDALIA*       CLEAR     59  50  72 N5        30.14R
DOUGLAS*       MOCLDY    61  55  82 CALM      30.15S
$$



USA.gov is the U.S. government's official web portal to all federal, state and local government web resources and services.